894  
ASUS46 KPDT 211125  
RWRPDT  
PENDLETON REGIONAL WEATHER ROUNDUP  
NATIONAL WEATHER SERVICE PENDLETON OREGON  
300 AM PST FRI NOV 21 2014  
 
NOTE: FAIR INDICATES FEW OR NO CLOUDS BELOW 12,000 FEET WITH NO  
SIGNIFICANT WEATHER AND/OR S TO VISIBILITY
.  
 
# INDICATES UNOFFICIAL STATION AND DATA  
 
WAZ520-211210-  
EAST SLOPES OF WASHINGTON CASCADES  
 
CITY SKY/WX TMP DP RH WIND PRES REMARKS
 
#BUMPING DAM N/A 32 N/A N/A CALM N/A  
#CLE ELUM HS N/A 29 26 88 CALM 29.89S  
#CLE ELUM 2NW N/A 27 27 100 CALM N/A  
#CLE ELUM LAKE N/A N/A N/A N/A SW5 29.98S  
#CLIFFDEL 2NW N/A 30 29 96 CALM N/A  
#GLENWOOD N/A 32 31 96 CALM 30.02S  
#MANASTASH CYN N/A 28 24 85 CALM 29.88F  
#NELSON N/A 27 25 92 CALM 30.03S  
#NELSON 3SW N/A 28 27 96 CALM 30.22R  
#NILE N/A 27 25 92 CALM 29.26S  
#RONALD 2NW N/A 32 28 85 NE1 29.78S  
#SNOWDEN N/A 32 28 85 CALM N/A  
#TEANAWAY 4NE N/A 27 26 96 CALM N/A  
#TROUT LAKE HS N/A 35 34 96 CALM N/A  
#TROUT LAKE 1NE N/A 32 31 96 CALM 30.02F  

 
 
WAZ521-211210-  
SIMCOE HIGHLANDS  
 
CITY SKY/WX TMP DP RH WIND PRES REMARKS
 
#BICKLETON HS N/A 36 29 75 W2 30.03S  
#CENTERVILLE 4W N/A 28 25 88 SE1 29.70S  
#CENTERVILLE 1SWN/A 22 20 92 CALM 30.02F  
#GOLDENDALE N/A 24 23 96 CALM N/A  
#GOLDENDALE 1NE N/A 26 26 100 CALM N/A  
#GOLDENDALE 1S N/A 25 24 96 CALM 29.93S  
#GOODNOE HILLS N/A 28 25 88 CALM N/A  
#LYLE 6NE N/A 29 28 96 CALM 30.01F  

 
 
WAZ026-211210-  
KITTITAS VALLEY  
 
CITY SKY/WX TMP DP RH WIND PRES REMARKS
 
ELLENSBURG AP CLOUDY 29 24 81 CALM 29.95R HAZE  
#ELLENSBURG CWU N/A 26 23 88 CALM 29.97R  
#ELLENSBURG 3NE N/A 26 24 92 CALM 29.96S  
#ELLENSBURG N/A 30 30 100 CALM N/A  
#ELLENSBURG 1E N/A 25 21 84 CALM N/A  
#KITTITAS 4N N/A 28 22 78 CALM 29.99R  
#KITTITAS 3S N/A 22 20 92 CALM 30.02R  
#THORP 6N N/A 30 28 92 CALM 30.03R  

 
 
WAZ027-211210-  
YAKIMA VALLEY  
 
CITY SKY/WX TMP DP RH WIND PRES REMARKS
 
SUNNYSIDE AP FRZFOG 21 19 92 CALM 30.02R VSB<1/4  
YAKIMA AIRPORT MOCLDY 24 19 81 SW5 30.00R HAZE  
YAKIMA-VAGABOND PTCLDY 24 22 92 SW1 29.99R FOG  
#DONALD 2NE N/A 27 25 92 CALM 28.85R  
#GRANDVIEW N/A 22 19 88 CALM 30.07R  
#MABTON N/A 24 23 96 CALM 30.01S  
#NACHES 2SW N/A 28 26 92 CALM 29.94F  
#OUTLOOK DOT N/A N/A N/A N/A E1 N/A  
#SELAH 8E N/A 22 19 88 E2 N/A  
#TERRACE HTS N/A 25 23 92 CALM 30.02R  
#TOPPENISH N/A 27 25 92 CALM 29.97R  
#WAPATO 4NE N/A 27 25 92 CALM 28.85R  
#WEST VALLEY N/A 26 23 88 CALM 30.03R  
#W YAKIMA N/A 28 25 88 CALM 30.05R  
#WHITE SWAN 5E N/A 24 22 92 CALM 30.06R  
#WILEY CITY 3W N/A 25 22 88 CALM 29.99F  

 
 
WAZ028-211210-  
LOWER COLUMBIA BASIN...WASHINGTON  
 
CITY SKY/WX TMP DP RH WIND PRES REMARKS
 
PASCO CLOUDY 25 25 100 N5 30.04S FOG  
PROSSER AWOS N/A 21 21 100 SW3 30.06R  
RICHLAND AWOS FRZFOG 27 27 100 CALM 30.04S VSB 1/4  
#BASIN CITY 5SW N/A 24 22 92 CALM 30.03R  
#BENTON CITY N/A 24 23 96 CALM 29.96S  
#CONNELL 5N N/A 21 19 92 CALM 30.04S  
#CONNELL 5NW N/A 23 21 92 CALM 30.00F  
#ELTOPIA 6NW N/A 24 23 96 CALM 28.97S  
#KAHLOTUS N/A 27 26 96 CALM 30.04F  
#KENNEWICK 3S N/A 27 25 92 CALM 30.06S  
#PATERSON N/A 30 29 96 CALM 30.04S  
#PROSSER N/A 26 23 88 CALM 30.05S  
#SAGEMOOR 2W N/A 24 22 92 CALM 29.91R  
#TOUCHET 2S N/A 30 28 92 S2 30.02F  
#WEST PASCO N/A 28 25 88 CALM 30.05R  

 
 
WAZ029-211210-  
FOOTHILLS OF THE BLUES...WASHINGTON  
 
CITY SKY/WX TMP DP RH WIND PRES REMARKS
 
WALLA WALLA AP FOG 30 29 96 NE5 29.96F VSB 3/4  
#COLLEGE PLACE N/A 34 26 72 CALM 30.02F  
#DAYTON SCHOOL N/A 28 24 85 N1 29.97F  
#LOWDEN 2SE N/A 30 29 96 CALM 29.98F  
#PLEASANT VIEW 1N/A 25 24 96 CALM 30.08F  
#PRESCOTT N/A 31 30 96 CALM 30.01F  
#SUDBURY N/A 33 N/A N/A CALM N/A  
#WHITMAN COLLEGEN/A 30 29 96 CALM 30.08F  
#WAITSBURG 5S N/A 27 26 96 E1 30.14F  
#WAITSBURG 8N N/A 28 23 81 CALM 29.88F  
#WALLA WALLA 5E N/A 29 28 96 S6 N/A  
#WALLA WALLA U N/A 31 29 92 CALM 30.04F  
#WHITMAN MISSIONN/A 31 29 92 CALM 30.05F  

 
 
WAZ030-211210-  
BLUE MOUNTAINS...WASHINGTON  
 
CITY SKY/WX TMP DP RH WIND PRES REMARKS
 
#DIXIE 5SE N/A 44 30 58 S6 29.84F  

 
 
ORZ009-041-WAZ024-211210-  
COLUMBIA RIVER GORGE  
 
CITY SKY/WX TMP DP RH WIND PRES REMARKS
 
HOOD RIVER AP CLOUDY 32 32 100 CALM 30.02S FOG  
THE DALLES AP CLOUDY 31 27 85 E3 30.04F FOG  
#ARLINGTON AIRPON/A 28 28 100 CALM 29.99F  
#CELILO DOT N/A 33 28 82 CALM N/A  
#MARYHILL 2W N/A 31 31 100 CALM N/A  
#MOSIER 1S N/A 30 27 88 SW6 30.03S  
#MURDOCK N/A 32 30 92 E1 30.07S  
#RUFUS DOT N/A 32 30 92 S6 N/A  
 

 
 
ORZ510-211210-  
NORTH CENTRAL OREGON  
 
CITY SKY/WX TMP DP RH WIND PRES REMARKS
 
#CHENOWITH 1W N/A 28 27 96 S3 N/A  
#COW CYN RST AREN/A 33 31 92 W3 N/A  
#DUFUR 9E N/A 34 30 85 CALM 30.08F  
#GRASS VALLEY N/A 27 27 100 S1 N/A  
#GRASS VALLEY 1SN/A 25 23 92 CALM 30.07S  
#KENT DOT N/A 31 28 88 SW6 N/A  
#MAUPIN SCHOOL N/A 25 22 88 CALM 28.90F  
#MORO SCHOOL N/A 26 25 96 E1 29.98S  
#SHANIKO 5WSW N/A 35 29 78 S8 N/A  
#SHANIKO 4NW N/A 37 33 85 S7 29.91S  
#TYGH VALLEY 2NEN/A 25 23 92 CALM 30.06F  
#WAPANITIA AIRPON/A 24 23 96 CALM 30.07F  
#WASCO DOT N/A 25 24 96 SE3 N/A  
#WASCO AIRPORT N/A 24 20 84 W2 N/A  
#WASCO 5NE N/A 26 24 92 CALM 30.05F  

 
 
ORZ511-211210-  
CENTRAL OREGON  
 
CITY SKY/WX TMP DP RH WIND PRES REMARKS
 
BEND AIRPORT PTCLDY 37 34 89 SW9 29.95F  
MADRAS AIRPORT MOCLDY 27 27 100 CALM 29.98S FOG  
PRINEVILLE AP CLOUDY 37 36 96 S3 29.96S  
REDMOND AIRPORT MOCLDY 34 32 92 S9 29.94F  
#BEND 6E N/A 38 32 79 CALM 29.96F  
#BEND 1SW N/A 34 34 100 SW3 N/A  
#BEND-AWBREY N/A 38 35 89 N9 29.97F  
#BEND-KIM LN N/A 37 35 92 SW6 29.91F  
#CROOKED RVR RANN/A 31 30 96 SW10 30.05F  
#CULVER N/A 28 26 92 CALM 29.91S  
#LAKE BILLY CHINN/A 32 32 100 CALM 30.07S  
#POWELL BUTTE N/A 40 34 79 SW5 29.58S  
#PRINEVILLE 3N N/A 32 31 96 CALM 30.00S  
#WARM SPRINGS N/A 27 25 92 CALM 29.97R  
 
 
ORZ509-211210-  
EAST SLOPES OF OREGON CASCADES  
 
CITY SKY/WX TMP DP RH WIND PRES REMARKS
 
#BLUE BOX PASS N/A 36 -12 12 NW2 N/A  
#BLACK BUTTE RNCN/A 32 32 100 CALM 30.02F  
#CAMP SHERMAN N/A 30 28 92 CALM 30.02R  
#LA PINE DOT N/A 33 33 100 SE1 N/A  
#LA PINE 4NW N/A 33 30 89 CALM 30.05S  
#LAVA BUTTE DOT N/A 33 33 100 SW1 N/A  
#MT BACHELOR-MIDN/A 26 25 96 S14 N/A WCI 14  
#SISTERS AIRPOR N/A 24 24 100 CALM 29.91S  
#SISTERS ODOT N/A 24 N/A N/A CALM N/A  
#SISTERS 1NW N/A 24 22 92 NE6 N/A  
#SISTERS 3N N/A 22 17 81 CALM 29.98S  
#SUNRIVER N/A 35 34 96 S1 29.89F  
#SUNRIVER AP N/A 45 44 96 CALM 29.93R  
#TUMALO 3W N/A 40 35 82 CALM 29.87R  
#WANOGA BUTTE D N/A 31 31 100 W3 N/A  
 

 
 
ORZ044-211210-  
LOWER COLUMBIA BASIN...OREGON  
 
CITY SKY/WX TMP DP RH WIND PRES REMARKS
 
HERMISTON CLOUDY 31 29 92 CALM 30.02S FOG  
#BOARDMAN 3W N/A 30 29 96 W3 29.79R  
#BOARDMAN 8SW N/A 29 27 92 CALM 30.06R  
#ECHO 8SW N/A 30 26 85 CALM 29.99F  
#IONE SCHOOL N/A 22 14 71 CALM 29.99S  
#IRRIGON 4NW N/A 30 29 96 CALM N/A  
#UMATILLA SCHOOLN/A 27 27 100 CALM 30.12R  
#UMATILLA N/A 31 27 85 CALM 30.01S  

 
 
ORZ507-211210-  
NORTHERN FOOTHILLS OF THE BLUES  
 
CITY SKY/WX TMP DP RH WIND PRES REMARKS
 
PENDLETON AIRPT FRZFOG 27 27 100 E7 29.95F VSB 1/4  
#ADAMS 3WNW N/A 26 25 96 CALM 30.02F  
#ATHENA N/A 26 25 96 CALM 30.05F  
#CAYUSE N/A 28 27 96 CALM 30.02F  
#HELIX SCHOOL N/A 25 24 96 E3 30.02F  
#HELIX 3N N/A 25 24 96 E6 29.90F  
#HOLDMAN 5SE N/A 28 27 96 CALM 29.96F  
#HOLDMAN 6E N/A 25 24 96 CALM 29.83F  
#M-F FERNDALE N/A 30 27 88 CALM 29.99F  
#M-F GROVE ELEM N/A 29 26 88 CALM 29.98F  
#M-FREEWATER 5SEN/A 28 26 92 CALM 29.96F  
#PENDLETON DNTN N/A 30 28 92 CALM 28.79F  
#PDT AQUATIC CTRN/A 30 26 85 CALM 29.94F  
#PENDLETON 5NE N/A 28 27 96 CALM 29.91F  
#PDT SUNRIDGE N/A 29 28 96 E1 29.98F  
#PENDLETON 7NW N/A 28 25 88 CALM 27.47F  
#PILOT ROCK N/A 26 22 85 CALM 29.96F  
#TUTUILLA N/A 29 27 92 CALM 30.00F  
#UMAPINE 2E N/A 31 30 96 CALM 29.97F  
#WESTON SCHOOL N/A 25 22 88 CALM 29.89F  
 

 
 
ORZ508-211210-  
SOUTHERN FOOTHILLS OF THE BLUES  
 
CITY SKY/WX TMP DP RH WIND PRES REMARKS
 
LEXINGTON MOCLEAR 27 23 85 MISG 29.98S FOG  
#AJAX N/A 30 24 78 CALM 29.89R  
#CONDON SCHOOL N/A 37 33 85 CALM 29.90R  
#FOSSIL SCHOOL N/A 33 30 89 CALM 29.92R  
#HEPPNER EOC N/A 28 26 92 CALM 29.98F  
#HEPPNER 4NE N/A 40 34 79 CALM 29.99F  
#LEXINGTON 2SE N/A 23 20 88 CALM 29.93S  
#MIKKALO N/A 25 21 84 CALM 29.98R  
#OLEX 4N N/A 22 20 92 S1 29.98R  
#RUGGS 5NE N/A 39 33 79 E2 30.07F  
#RUGGS 2SW N/A 40 33 76 SW8 30.02F  
 

 
 
ORZ502-503-211210-  
BLUE MOUNTAINS  
 
CITY SKY/WX TMP DP RH WIND PRES REMARKS
 
MEACHAM CLOUDY 33 29 85 CALM 29.93F  
#BATTLE MTN DOT N/A 29 29 100 S7 N/A  
#HEPPNER 15SE N/A 37 33 85 CALM 29.81F  
#LADD CYN SMT N/A 29 25 85 SE10 N/A  
#LADD CREEK ODOTN/A 32 28 85 S7 N/A  
#LONG CREEK HS N/A 36 35 96 CALM 29.88F  
#N POWDER DOT N/A 24 24 100 W3 N/A  
#PIKES PEAK N/A 44 31 60 S17 27.99S WCI 36  
#TOLLGATE N/A 31 29 92 CALM 29.86F  
#TROY SCHOOL N/A 30 28 92 CALM 29.94F  
#UKIAH N/A 28 27 96 CALM 30.07F  
#WESTON 4E N/A 38 32 79 E7 29.92F  

 
 
ORZ505-211210-  
JOHN DAY BASIN  
 
CITY SKY/WX TMP DP RH WIND PRES REMARKS
 
JOHN DAY CLOUDY 38 33 82 E8 29.94F  
#JOHN DAY KJDY N/A 38 33 82 CALM 30.10F  
#DAYVILLE SCHOOLN/A 37 34 89 CALM 29.93F  
#MONUMENT HS N/A 34 31 89 CALM 29.98S  
#MT. VERNON 5SE N/A 39 33 79 SE2 29.90F  
#WINLOCK N/A 38 34 85 CALM 30.03S  

 
 
ORZ506-211210-  
OCHOCO AND JOHN DAY HIGHLANDS  
 
CITY SKY/WX TMP DP RH WIND PRES REMARKS
 
#BUCK CREEK DOT N/A 36 36 100 SE6 N/A  
#HORSE RIDGE DO N/A 30 29 96 SW3 N/A  
#KEYES SMT DOT N/A 35 33 92 S2 N/A  
#PAULINA SCHOOL N/A 35 33 92 CALM 29.96S  
#PINE MTN OBS N/A 30 29 96 S15G26 N/A WCI 19  
#PRAIRIE CITY N/A 31 27 85 E1 30.11F  
#SENECA N/A 32 N/A N/A CALM N/A  
#SENECA 9NW N/A 31 30 96 CALM 30.03F  

 
 
ORZ049-211210-  
GRANDE RONDE VALLEY  
 
CITY SKY/WX TMP DP RH WIND PRES REMARKS
 
LA GRANDE MOCLDY 28 23 81 N3 29.96F  
#COVE N/A 29 24 81 CALM 30.03S  
#COVE SCHOOL N/A 30 28 92 CALM 29.97F  
#COVE 6NW N/A 26 24 92 CALM 30.13F  
#ELGIN 3N N/A 25 21 84 CALM 29.73F  
#ELGIN 1E N/A 26 22 85 CALM N/A  
#IMBLER SCHOOL N/A 26 23 88 N2 29.94F  
#ISLAND CITY 4N N/A 42 41 96 CALM 29.93S  
#LADD CYN DOT N/A 35 30 82 SE10 N/A  
#UNION 1S N/A 34 28 78 S7 30.00F  

 
 
ORZ050-211210-  
WALLOWA COUNTY  
 
CITY SKY/WX TMP DP RH WIND PRES REMARKS
 
JOSEPH AIRPORT FRZFOG 27 27 100 CALM 29.97F VSB 1/4  
#ENTERPRISE AP N/A 26 23 88 CALM 29.92S  
#IMNAHA SCHOOL N/A 30 27 88 S2 30.00F  
#IMNAHA 10S N/A 28 25 88 CALM 29.98R  
#JOSEPH 3N N/A 25 22 88 CALM 29.99S  
#JOSEPH 3W N/A 27 24 88 CALM 29.78F  
#LOSTINE N/A 27 25 92 CALM 29.91F  
#MT HOWARD 8000 N/A 29 23 78 W7 29.89F  
#PROMISE 1S N/A 28 26 92 CALM 30.18F  
#SHEEP RDG 7000 N/A 31 22 69 CALM 30.00F  
#WALLOWA SCHOOL N/A 30 28 92 CALM 31.08F  
 

 
 
CLICK HERE TO GO TO PREVIOUS BULLETINS.

The Nexlab OR Page
The Nexlab WA Page Main Text Page